,,Stat6,,Stat2,,Stat8,,Stat9,,Stat10,,Wind1,,Wind1,
time,status,PA1M_AVG,status,PR1M_SUM,status,RH1M_AVG,status,SR1M_AVG,status,TA1M_AVG,status,W1dAve1m,status,W1sAve1m,
2007-05-18, 00:00:00,VALID,918.264,VALID,0,VALID,100,VALID,-0.0169808,VALID,20.9003,VALID,277,VALID,0,
2007-05-18, 00:01:00,VALID,918.246,VALID,0,VALID,100,VALID,0,VALID,20.887,VALID,277,VALID,0,
2007-05-18, 00:02:00,VALID,918.235,VALID,0,VALID,100,VALID,-0.0169808,VALID,20.887,VALID,277,VALID,0.230824,
2007-05-18, 00:03:00,VALID,918.225,VALID,0,VALID,100,VALID,0,VALID,20.8643,VALID,277,VALID,0.158854,
2007-05-18, 00:04:00,VALID,918.22,VALID,0,VALID,100,VALID,0,VALID,20.8673,VALID,277,VALID,0.111719,
2007-05-18, 00:05:00,VALID,918.207,VALID,0,VALID,100,VALID,0.0169808,VALID,20.88,VALID,320,VALID,0.237351,
2007-05-18, 00:06:00,VALID,918.194,VALID,0,VALID,100,VALID,0.0169808,VALID,20.8868,VALID,326,VALID,0.046131,
2007-05-18, 00:07:00,VALID,918.178,VALID,0,VALID,100,VALID,0,VALID,20.8643,VALID,326,VALID,0.211277,
2007-05-18, 00:08:00,VALID,918.163,VALID,0,VALID,100,VALID,-0.0169808,VALID,20.8446,VALID,326,VALID,0.140455,
2007-05-18, 00:09:00,VALID,918.138,VALID,0,VALID,100,VALID,0,VALID,20.8416,VALID,326,VALID,0,
2007-05-18, 00:10:00,VALID,918.131,VALID,0,VALID,100,VALID,0,VALID,20.8448,VALID,326,VALID,0,
2007-05-18, 00:11:00,VALID,918.126,VALID,0,VALID,100,VALID,-0.0169808,VALID,20.8378,VALID,326,VALID,0.144215,
2007-05-18, 00:12:00,VALID,918.119,VALID,0,VALID,100,VALID,-0.0169808,VALID,20.7994,VALID,332,VALID,0.26399,
2007-05-18, 00:13:00,VALID,918.107,VALID,0,VALID,100,VALID,0,VALID,20.7572,VALID,332,VALID,0.330031,
2007-05-18, 00:14:00,VALID,918.113,VALID,0,VALID,100,VALID,-0.0169808,VALID,20.764,VALID,332,VALID,0.283558,
2007-05-18, 00:15:00,VALID,918.114,VALID,0,VALID,100,VALID,-0.0169808,VALID,20.7537,VALID,332,VALID,0.211664,
2007-05-18, 00:16:00,VALID,918.096,VALID,0,VALID,100,VALID,0,VALID,20.7702,VALID,332,VALID,0.113104,
2007-05-18, 00:17:00,VALID,918.078,VALID,0,VALID,100,VALID,-0.0169808,VALID,20.7632,VALID,333,VALID,0.351004,
2007-05-18, 00:18:00,VALID,918.053,VALID,0,VALID,100,VALID,0,VALID,20.7504,VALID,333,VALID,0.263081,
2007-05-18, 00:19:00,VALID,918.046,VALID,0,VALID,100,VALID,0,VALID,20.7212,VALID,333,VALID,0.419643,
2007-05-18, 00:20:00,VALID,918.029,VALID,0,VALID,100,VALID,0,VALID,20.698,VALID,333,VALID,0.434338,
2007-05-18, 00:21:00,VALID,918.008,VALID,0,VALID,100,VALID,0,VALID,20.7085,VALID,333,VALID,0.415396,
2007-05-18, 00:22:00,VALID,918.01,VALID,0,VALID,100,VALID,0,VALID,20.715,VALID,333,VALID,0.378811,
2007-05-18, 00:23:00,VALID,917.997,VALID,0,VALID,100,VALID,0.0169808,VALID,20.6915,VALID,333,VALID,0.127418,
2007-05-18, 00:24:00,VALID,917.974,VALID,0,VALID,100,VALID,0,VALID,20.702,VALID,333,VALID,0.361555,
2007-05-18, 00:25:00,VALID,917.954,VALID,0,VALID,100,VALID,-0.0169808,VALID,20.7377,VALID,333,VALID,0.475962,
2007-05-18, 00:26:00,VALID,917.95,VALID,0,VALID,100,VALID,-0.0339617,VALID,20.7442,VALID,337,VALID,0.49782,
2007-05-18, 00:27:00,VALID,917.945,VALID,0,VALID,100,VALID,-0.0169808,VALID,20.6758,VALID,341,VALID,0.150534,
2007-05-18, 00:28:00,VALID,917.927,VALID,0,VALID,100,VALID,0,VALID,20.6276,VALID,341,VALID,0.319404,
2007-05-18, 00:29:00,VALID,917.921,VALID,0,VALID,100,VALID,-0.0169808,VALID,20.6144,VALID,341,VALID,0.183203,
2007-05-18, 00:30:00,VALID,917.913,VALID,0,VALID,100,VALID,-0.0509425,VALID,20.6441,VALID,341,VALID,0.0655048,
2007-05-18, 00:31:00,VALID,917.89,VALID,0,VALID,100,VALID,-0.0339617,VALID,20.6341,VALID,342,VALID,0.18699,
2007-05-18, 00:32:00,VALID,917.891,VALID,0,VALID,100,VALID,-0.0169808,VALID,20.6239,VALID,342,VALID,0.160247,
2007-05-18, 00:33:00,VALID,917.869,VALID,0,VALID,100,VALID,-0.0509425,VALID,20.6339,VALID,5,VALID,0.674361,
2007-05-18, 00:34:00,VALID,917.858,VALID,0,VALID,100,VALID,-0.0509425,VALID,20.6339,VALID,13,VALID,0.484933,
2007-05-18, 00:35:00,VALID,917.841,VALID,0,VALID,100,VALID,-0.0679233,VALID,20.6179,VALID,13,VALID,0.435547,
2007-05-18, 00:36:00,VALID,917.833,VALID,0,VALID,100,VALID,-0.0339617,VALID,20.6082,VALID,2,VALID,0.625182,
2007-05-18, 00:37:00,VALID,917.822,VALID,0,VALID,100,VALID,0,VALID,20.6176,VALID,343,VALID,0.147294,
2007-05-18, 00:38:00,VALID,917.813,VALID,0,VALID,100,VALID,-0.0339617,VALID,20.6109,VALID,349,VALID,0.152439,
2007-05-18, 00:39:00,VALID,917.795,VALID,0,VALID,100,VALID,-0.0509425,VALID,20.6112,VALID,360,VALID,0.258594,
2007-05-18, 00:40:00,VALID,917.801,VALID,0,VALID,100,VALID,-0.101885,VALID,20.5919,VALID,4,VALID,0.292151,
2007-05-18, 00:41:00,VALID,917.797,VALID,0,VALID,100,VALID,-0.0849042,VALID,20.5592,VALID,19,VALID,0.396129,
2007-05-18, 00:42:00,VALID,917.798,VALID,0,VALID,100,VALID,-0.0509425,VALID,20.5595,VALID,19,VALID,0.485518,
2007-05-18, 00:43:00,VALID,917.796,VALID,0,VALID,100,VALID,-0.0339617,VALID,20.5727,VALID,19,VALID,0.259055,
2007-05-18, 00:44:00,VALID,917.779,VALID,0,VALID,100,VALID,-0.0339617,VALID,20.5917,VALID,19,VALID,0.00816761,
2007-05-18, 00:45:00,VALID,917.762,VALID,0,VALID,100,VALID,0,VALID,20.6247,VALID,19,VALID,0.00585938,
2007-05-18, 00:46:00,VALID,917.749,VALID,0,VALID,100,VALID,0,VALID,20.6074,VALID,19,VALID,0.0126065,
2007-05-18, 00:47:00,VALID,917.724,VALID,0,VALID,100,VALID,0,VALID,20.5912,VALID,19,VALID,0.0463299,
2007-05-18, 00:48:00,VALID,917.698,VALID,0,VALID,100,VALID,0,VALID,20.5719,VALID,19,VALID,0,
2007-05-18, 00:49:00,VALID,917.666,VALID,0,VALID,100,VALID,-0.0169808,VALID,20.5617,VALID,19,VALID,0.267188,
2007-05-18, 00:50:00,VALID,917.654,VALID,0,VALID,100,VALID,-0.0169808,VALID,20.5944,VALID,14,VALID,0.583147,
2007-05-18, 00:51:00,VALID,917.629,VALID,0,VALID,100,VALID,-0.0339617,VALID,20.5947,VALID,25,VALID,0.412574,
2007-05-18, 00:52:00,VALID,917.612,VALID,0,VALID,100,VALID,0,VALID,20.5268,VALID,25,VALID,0.702415,
2007-05-18, 00:53:00,VALID,917.586,VALID,0,VALID,100,VALID,-0.0339617,VALID,20.546,VALID,28,VALID,0.694425,
2007-05-18, 00:54:00,VALID,917.566,VALID,0,VALID,100,VALID,0,VALID,20.5819,VALID,57,VALID,0.536932,
2007-05-18, 00:55:00,VALID,917.556,VALID,0,VALID,100,VALID,-0.0339617,VALID,20.5979,VALID,66,VALID,0.174782,
2007-05-18, 00:56:00,VALID,917.556,VALID,0,VALID,100,VALID,0,VALID,20.6041,VALID,66,VALID,0.03125,
2007-05-18, 00:57:00,VALID,917.564,VALID,0,VALID,100,VALID,-0.0339617,VALID,20.6176,VALID,58,VALID,0.0949929,
2007-05-18, 00:58:00,VALID,917.551,VALID,0,VALID,99.9934,VALID,-0.0169808,VALID,20.6166,VALID,32,VALID,0.278711,
2007-05-18, 00:59:00,VALID,917.55,VALID,0,VALID,100,VALID,0.0169808,VALID,20.6528,VALID,29,VALID,0.143787,
2007-05-18, 01:00:00,VALID,917.542,VALID,0,VALID,100,VALID,-0.0169808,VALID,20.689,VALID,29,VALID,0.103198,
2007-05-18, 01:01:00,VALID,917.533,VALID,0,VALID,99.8652,VALID,-0.0509425,VALID,20.6598,VALID,42,VALID,0.815625,
2007-05-18, 01:02:00,VALID,917.513,VALID,0,VALID,99.4624,VALID,0,VALID,20.6563,VALID,52,VALID,0.993118,
2007-05-18, 01:03:00,VALID,917.503,VALID,0,VALID,99.0478,VALID,0,VALID,20.6366,VALID,48,VALID,0.898438,
2007-05-18, 01:04:00,VALID,917.484,VALID,0,VALID,98.8889,VALID,0,VALID,20.6331,VALID,46,VALID,0.545833,
2007-05-18, 01:05:00,VALID,917.463,VALID,0,VALID,98.8139,VALID,-0.0509425,VALID,20.6628,VALID,46,VALID,0.0154433,
2007-05-18, 01:06:00,VALID,917.467,VALID,0,VALID,98.6498,VALID,0,VALID,20.6466,VALID,71,VALID,0.255335,
2007-05-18, 01:07:00,VALID,917.473,VALID,0,VALID,98.6689,VALID,0,VALID,20.6074,VALID,162,VALID,0.671709,
2007-05-18, 01:08:00,VALID,917.449,VALID,0,VALID,99.0364,VALID,-0.0339617,VALID,20.5812,VALID,172,VALID,0.925686,
2007-05-18, 01:09:00,VALID,917.438,VALID,0,VALID,99.4814,VALID,0,VALID,20.5687,VALID,138,VALID,0.930469,
2007-05-18, 01:10:00,VALID,917.412,VALID,0,VALID,99.9738,VALID,0,VALID,20.5395,VALID,131,VALID,1.16747,
2007-05-18, 01:11:00,VALID,917.386,VALID,0,VALID,100,VALID,-0.0509425,VALID,20.4908,VALID,129,VALID,1.13899,
2007-05-18, 01:12:00,VALID,917.376,VALID,0,VALID,100,VALID,-0.0169808,VALID,20.4327,VALID,145,VALID,0.674419,
2007-05-18, 01:13:00,VALID,917.366,VALID,0,VALID,100,VALID,-0.0169808,VALID,20.377,VALID,154,VALID,0.754724,
2007-05-18, 01:14:00,VALID,917.348,VALID,0,VALID,100,VALID,-0.0509425,VALID,20.3678,VALID,161,VALID,0.81529,
2007-05-18, 01:15:00,VALID,917.336,VALID,0,VALID,100,VALID,0,VALID,20.3513,VALID,164,VALID,0.963246,
2007-05-18, 01:16:00,VALID,917.307,VALID,0,VALID,100,VALID,-0.0509425,VALID,20.3613,VALID,162,VALID,0.914063,
2007-05-18, 01:17:00,VALID,917.285,VALID,0,VALID,100,VALID,-0.0169808,VALID,20.3543,VALID,157,VALID,0.85061,
2007-05-18, 01:18:00,VALID,917.284,VALID,0,VALID,100,VALID,0,VALID,20.3543,VALID,156,VALID,0.6875,
2007-05-18, 01:19:00,VALID,917.28,VALID,0,VALID,100,VALID,0,VALID,20.3448,VALID,154,VALID,0.62642,
2007-05-18, 01:20:00,VALID,917.268,VALID,0,VALID,100,VALID,0,VALID,20.3413,VALID,151,VALID,0.892857,
2007-05-18, 01:21:00,VALID,917.267,VALID,0,VALID,100,VALID,0,VALID,20.3578,VALID,149,VALID,0.696057,
2007-05-18, 01:22:00,VALID,917.254,VALID,0,VALID,100,VALID,0,VALID,20.361,VALID,150,VALID,0.778832,
2007-05-18, 01:23:00,VALID,917.241,VALID,0,VALID,100,VALID,-0.0339617,VALID,20.3678,VALID,154,VALID,0.893483,
2007-05-18, 01:24:00,VALID,917.232,VALID,0,VALID,100,VALID,0,VALID,20.384,VALID,156,VALID,0.804116,
2007-05-18, 01:25:00,VALID,917.224,VALID,0,VALID,100,VALID,-0.0169808,VALID,20.3867,VALID,158,VALID,0.716146,
2007-05-18, 01:26:00,VALID,917.203,VALID,0,VALID,100,VALID,-0.0169808,VALID,20.3997,VALID,158,VALID,0.684524,
2007-05-18, 01:27:00,VALID,917.183,VALID,0,VALID,100,VALID,-0.0169808,VALID,20.4197,VALID,157,VALID,0.635742,
2007-05-18, 01:28:00,VALID,917.173,VALID,0,VALID,100,VALID,-0.0169808,VALID,20.4197,VALID,154,VALID,0.554324,
2007-05-18, 01:29:00,VALID,917.186,VALID,0,VALID,100,VALID,0,VALID,20.4097,VALID,156,VALID,0.705673,
2007-05-18, 01:30:00,VALID,917.183,VALID,0,VALID,100,VALID,-0.0679233,VALID,20.4129,VALID,170,VALID,0.595982,
2007-05-18, 01:31:00,VALID,917.177,VALID,0,VALID,100,VALID,-0.0509425,VALID,20.4267,VALID,170,VALID,0.210751,
2007-05-18, 01:32:00,VALID,917.17,VALID,0,VALID,100,VALID,-0.0679233,VALID,20.4072,VALID,170,VALID,0.0230741,
2007-05-18, 01:33:00,VALID,917.16,VALID,0,VALID,100,VALID,-0.0509425,VALID,20.3972,VALID,170,VALID,0,
2007-05-18, 01:34:00,VALID,917.145,VALID,0,VALID,100,VALID,-0.0339617,VALID,20.394,VALID,170,VALID,0,
2007-05-18, 01:35:00,VALID,917.12,VALID,0,VALID,100,VALID,-0.0339617,VALID,20.384,VALID,170,VALID,0,
2007-05-18, 01:36:00,VALID,917.111,VALID,0,VALID,100,VALID,-0.0339617,VALID,20.3515,VALID,170,VALID,0,
2007-05-18, 01:37:00,VALID,917.096,VALID,0,VALID,100,VALID,-0.0679233,VALID,20.2769,VALID,170,VALID,0,
2007-05-18, 01:38:00,VALID,917.074,VALID,0,VALID,100,VALID,-0.0509425,VALID,20.2344,VALID,141,VALID,0.171354,
2007-05-18, 01:39:00,VALID,917.039,VALID,0,VALID,100,VALID,-0.0169808,VALID,20.1828,VALID,57,VALID,0.568359,
2007-05-18, 01:40:00,VALID,917.025,VALID,0,VALID,100,VALID,-0.0339617,VALID,20.1406,VALID,57,VALID,0.559338,
2007-05-18, 01:41:00,VALID,917.007,VALID,0,VALID,100,VALID,-0.0509425,VALID,20.1374,VALID,57,VALID,0.462798,
2007-05-18, 01:42:00,VALID,917.001,VALID,0,VALID,100,VALID,-0.0339617,VALID,20.1276,VALID,57,VALID,0.462798,
2007-05-18, 01:43:00,VALID,916.977,VALID,0,VALID,100,VALID,-0.0339617,VALID,20.1149,VALID,55,VALID,0.510417,
2007-05-18, 01:44:00,VALID,916.954,VALID,0,VALID,100,VALID,-0.0849042,VALID,20.1094,VALID,52,VALID,0.700893,
2007-05-18, 01:45:00,VALID,916.931,VALID,0,VALID,100,VALID,-0.101885,VALID,20.1291,VALID,48,VALID,0.703887,
2007-05-18, 01:46:00,VALID,916.897,VALID,0,VALID,100,VALID,-0.135847,VALID,20.1811,VALID,33,VALID,0.837271,
2007-05-18, 01:47:00,VALID,916.86,VALID,0,VALID,100,VALID,-0.135847,VALID,20.236,VALID,33,VALID,0.90625,
2007-05-18, 01:48:00,VALID,916.84,VALID,0,VALID,99.8487,VALID,-0.135847,VALID,20.2557,VALID,33,VALID,0.809304,
2007-05-18, 01:49:00,VALID,916.82,VALID,0,VALID,99.5959,VALID,-0.152827,VALID,20.2425,VALID,33,VALID,0.72923,
2007-05-18, 01:50:00,VALID,916.791,VALID,0,VALID,99.5043,VALID,-0.118866,VALID,20.2944,VALID,33,VALID,0.739025,
2007-05-18, 01:51:00,VALID,916.776,VALID,0,VALID,99.2004,VALID,-0.101885,VALID,20.3368,VALID,33,VALID,0.626674,
2007-05-18, 01:52:00,VALID,916.732,VALID,0,VALID,98.9944,VALID,-0.118866,VALID,20.3531,VALID,33,VALID,0.778711,
2007-05-18, 01:53:00,VALID,916.736,VALID,0,VALID,98.7388,VALID,-0.101885,VALID,20.395,VALID,33,VALID,0.791735,
2007-05-18, 01:54:00,VALID,916.717,VALID,0,VALID,98.4934,VALID,-0.135847,VALID,20.4212,VALID,33,VALID,0.674219,
2007-05-18, 01:55:00,VALID,916.699,VALID,0,VALID,98.2734,VALID,-0.118866,VALID,20.4242,VALID,33,VALID,0.669876,
2007-05-18, 01:56:00,VALID,916.667,VALID,0,VALID,98.1412,VALID,-0.118866,VALID,20.4145,VALID,33,VALID,0.850818,
2007-05-18, 01:57:00,VALID,916.645,VALID,0,VALID,98.0394,VALID,-0.118866,VALID,20.3888,VALID,33,VALID,0.837536,
2007-05-18, 01:58:00,VALID,916.626,VALID,0,VALID,97.9492,VALID,-0.118866,VALID,20.405,VALID,33,VALID,0.999628,
2007-05-18, 01:59:00,VALID,916.619,VALID,0,VALID,97.7584,VALID,-0.0169808,VALID,20.4454,VALID,36,VALID,0.60174,
2007-05-18, 02:00:00,VALID,916.612,VALID,0,VALID,97.555,VALID,0,VALID,20.4456,VALID,36,VALID,0.324855,
2007-05-18, 02:01:00,VALID,916.595,VALID,0,VALID,97.6834,VALID,-0.0339617,VALID,20.4391,VALID,36,VALID,0.131138,
2007-05-18, 02:02:00,VALID,916.572,VALID,0,VALID,97.6656,VALID,-0.0509425,VALID,20.4262,VALID,36,VALID,0,
2007-05-18, 02:03:00,VALID,916.557,VALID,0,VALID,97.6389,VALID,0,VALID,20.4097,VALID,36,VALID,0.0215774,
2007-05-18, 02:04:00,VALID,916.528,VALID,0,VALID,97.6402,VALID,-0.0339617,VALID,20.3735,VALID,36,VALID,0.190104,
2007-05-18, 02:05:00,VALID,916.496,VALID,0,VALID,97.6694,VALID,0.0169808,VALID,20.3537,VALID,36,VALID,0.349254,
2007-05-18, 02:06:00,VALID,916.489,VALID,0,VALID,97.7584,VALID,0,VALID,20.3385,VALID,36,VALID,0.312678,
2007-05-18, 02:07:00,VALID,916.472,VALID,0,VALID,97.8843,VALID,-0.0169808,VALID,20.3188,VALID,36,VALID,0.335227,
2007-05-18, 02:08:00,VALID,916.482,VALID,0,VALID,98.0013,VALID,-0.0339617,VALID,20.3256,VALID,36,VALID,0,
2007-05-18, 02:09:00,VALID,916.475,VALID,0,VALID,98.0509,VALID,-0.0169808,VALID,20.2991,VALID,36,VALID,0,
2007-05-18, 02:10:00,VALID,916.467,VALID,0,VALID,98.2073,VALID,-0.0169808,VALID,20.3064,VALID,36,VALID,0.0304008,
2007-05-18, 02:11:00,VALID,916.46,VALID,0,VALID,98.2632,VALID,-0.0169808,VALID,20.3058,VALID,36,VALID,0.00635901,
2007-05-18, 02:12:00,VALID,916.453,VALID,0,VALID,98.3103,VALID,0,VALID,20.3058,VALID,36,VALID,0,
2007-05-18, 02:13:00,VALID,916.451,VALID,0,VALID,98.3968,VALID,0,VALID,20.3058,VALID,36,VALID,0,
2007-05-18, 02:14:00,VALID,916.448,VALID,0,VALID,98.4031,VALID,0.0169808,VALID,20.2996,VALID,36,VALID,0,
2007-05-18, 02:15:00,VALID,916.448,VALID,0,VALID,98.4324,VALID,0.0169808,VALID,20.2896,VALID,36,VALID,0,
2007-05-18, 02:16:00,VALID,916.436,VALID,0,VALID,98.4108,VALID,0.0169808,VALID,20.2701,VALID,36,VALID,0,
2007-05-18, 02:17:00,VALID,916.409,VALID,0,VALID,98.4425,VALID,0,VALID,20.2474,VALID,36,VALID,0,
2007-05-18, 02:18:00,VALID,916.398,VALID,0,VALID,98.5227,VALID,0,VALID,20.2472,VALID,36,VALID,0.0695858,
2007-05-18, 02:19:00,VALID,916.385,VALID,0,VALID,98.5684,VALID,0,VALID,20.2704,VALID,36,VALID,0.00457317,
2007-05-18, 02:20:00,VALID,916.381,VALID,0,VALID,98.5163,VALID,0.0169808,VALID,20.2764,VALID,36,VALID,0,
2007-05-18, 02:21:00,VALID,916.377,VALID,0,VALID,98.4883,VALID,0.0169808,VALID,20.2696,VALID,36,VALID,0,
2007-05-18, 02:22:00,VALID,916.373,VALID,0,VALID,98.4705,VALID,0.0509425,VALID,20.2731,VALID,36,VALID,0,
2007-05-18, 02:23:00,VALID,916.358,VALID,0,VALID,98.4336,VALID,0,VALID,20.2634,VALID,36,VALID,0,
2007-05-18, 02:24:00,VALID,916.354,VALID,0,VALID,98.3408,VALID,0.0339617,VALID,20.2407,VALID,36,VALID,0.0677083,
2007-05-18, 02:25:00,VALID,916.346,VALID,0,VALID,98.2772,VALID,0.0339617,VALID,20.2444,VALID,36,VALID,0.046131,
2007-05-18, 02:26:00,VALID,916.347,VALID,0,VALID,98.1246,VALID,0,VALID,20.208,VALID,36,VALID,0.110305,
2007-05-18, 02:27:00,VALID,916.334,VALID,0,VALID,98.1691,VALID,0.0169808,VALID,20.1753,VALID,36,VALID,0.180469,
2007-05-18, 02:28:00,VALID,916.343,VALID,0,VALID,98.2467,VALID,-0.0169808,VALID,20.1725,VALID,36,VALID,0.117378,
2007-05-18, 02:29:00,VALID,916.337,VALID,0,VALID,98.2823,VALID,0,VALID,20.1828,VALID,36,VALID,0.208097,
2007-05-18, 02:30:00,VALID,916.337,VALID,0,VALID,98.2874,VALID,0,VALID,20.1925,VALID,36,VALID,0.229911,
2007-05-18, 02:31:00,VALID,916.341,VALID,0,VALID,98.1679,VALID,0,VALID,20.1763,VALID,36,VALID,0.293713,
2007-05-18, 02:32:00,VALID,916.351,VALID,0,VALID,98.0051,VALID,-0.0169808,VALID,20.1309,VALID,36,VALID,0.422433,
2007-05-18, 02:33:00,VALID,916.357,VALID,0,VALID,97.9784,VALID,0.0169808,VALID,20.056,VALID,35,VALID,0.417515,
2007-05-18, 02:34:00,VALID,916.361,VALID,0,VALID,98.3116,VALID,0.0169808,VALID,20.0457,VALID,26,VALID,0.57298,
2007-05-18, 02:35:00,VALID,916.367,VALID,0,VALID,98.5125,VALID,0,VALID,20.0425,VALID,20,VALID,0.631882,
2007-05-18, 02:36:00,VALID,916.372,VALID,0,VALID,98.3637,VALID,-0.0169808,VALID,20.017,VALID,20,VALID,0.513808,
2007-05-18, 02:37:00,VALID,916.383,VALID,0,VALID,98.5964,VALID,0.0339617,VALID,19.9941,VALID,13,VALID,0.484561,
2007-05-18, 02:38:00,VALID,916.402,VALID,0,VALID,98.8507,VALID,0,VALID,20.0003,VALID,4,VALID,0.532812,
2007-05-18, 02:39:00,VALID,916.396,VALID,0,VALID,99.0046,VALID,0.0169808,VALID,20.0235,VALID,354,VALID,0.38316,
2007-05-18, 02:40:00,VALID,916.398,VALID,0,VALID,99.1,VALID,0,VALID,20.0228,VALID,334,VALID,0.173295,
2007-05-18, 02:41:00,VALID,916.389,VALID,0,VALID,99.5018,VALID,0,VALID,20.066,VALID,308,VALID,0.187686,
2007-05-18, 02:42:00,VALID,916.356,VALID,0,VALID,99.545,VALID,0,VALID,20.0884,VALID,308,VALID,0.0742188,
2007-05-18, 02:43:00,VALID,916.366,VALID,0,VALID,99.119,VALID,0,VALID,20.027,VALID,323,VALID,0.234747,
2007-05-18, 02:44:00,VALID,916.341,VALID,0,VALID,99.6073,VALID,-0.0849042,VALID,20.0083,VALID,337,VALID,0.347565,
2007-05-18, 02:45:00,VALID,916.317,VALID,0,VALID,99.5972,VALID,-0.0679233,VALID,20.0086,VALID,344,VALID,0.36238,
2007-05-18, 02:46:00,VALID,916.307,VALID,0,VALID,99.8082,VALID,-0.0679233,VALID,20.0023,VALID,344,VALID,0.508539,
2007-05-18, 02:47:00,VALID,916.315,VALID,0,VALID,99.8388,VALID,-0.101885,VALID,19.9956,VALID,349,VALID,0.459484,
2007-05-18, 02:48:00,VALID,916.316,VALID,0,VALID,99.943,VALID,-0.101885,VALID,19.9988,VALID,349,VALID,0.627131,
2007-05-18, 02:49:00,VALID,916.315,VALID,0,VALID,99.9252,VALID,-0.101885,VALID,19.9956,VALID,351,VALID,0.644159,
2007-05-18, 02:50:00,VALID,916.308,VALID,0,VALID,99.9222,VALID,-0.101885,VALID,19.9961,VALID,337,VALID,0.432736,
2007-05-18, 02:51:00,VALID,916.304,VALID,0,VALID,100,VALID,-0.118866,VALID,20.0091,VALID,316,VALID,0.225142,
2007-05-18, 02:52:00,VALID,916.292,VALID,0,VALID,99.8115,VALID,-0.0849042,VALID,19.9731,VALID,316,VALID,0,
2007-05-18, 02:53:00,VALID,916.276,VALID,0,VALID,99.4814,VALID,-0.101885,VALID,19.886,VALID,323,VALID,0.198583,
2007-05-18, 02:54:00,VALID,916.286,VALID,0,VALID,99.9639,VALID,-0.101885,VALID,19.8888,VALID,10,VALID,0.849746,
2007-05-18, 02:55:00,VALID,916.279,VALID,0,VALID,99.969,VALID,-0.118866,VALID,19.8922,VALID,21,VALID,0.922743,
2007-05-18, 02:56:00,VALID,916.288,VALID,0,VALID,99.6874,VALID,-0.0849042,VALID,19.879,VALID,22,VALID,1.13148,
2007-05-18, 02:57:00,VALID,916.299,VALID,0,VALID,99.4891,VALID,-0.0849042,VALID,19.8695,VALID,23,VALID,0.813244,
2007-05-18, 02:58:00,VALID,916.294,VALID,0,VALID,99.3721,VALID,-0.0849042,VALID,19.8531,VALID,22,VALID,0.619474,
2007-05-18, 02:59:00,VALID,916.296,VALID,0,VALID,99.47,VALID,0.0169808,VALID,19.8548,VALID,20,VALID,0.583394,
2007-05-18, 03:00:00,VALID,916.295,VALID,0,VALID,99.4077,VALID,0,VALID,19.8481,VALID,20,VALID,0.528409,
2007-05-18, 03:01:00,VALID,916.277,VALID,0,VALID,99.3009,VALID,0,VALID,19.8291,VALID,20,VALID,0.480841,
2007-05-18, 03:02:00,VALID,916.269,VALID,0,VALID,99.4255,VALID,0,VALID,19.8316,VALID,27,VALID,0.58724,
2007-05-18, 03:03:00,VALID,916.261,VALID,0,VALID,99.3772,VALID,0,VALID,19.855,VALID,26,VALID,0.623547,
2007-05-18, 03:04:00,VALID,916.235,VALID,0,VALID,99.381,VALID,0,VALID,19.8613,VALID,24,VALID,0.692042,
2007-05-18, 03:05:00,VALID,916.211,VALID,0,VALID,99.2576,VALID,0,VALID,19.874,VALID,30,VALID,0.631076,
2007-05-18, 03:06:00,VALID,916.173,VALID,0,VALID,99.0542,VALID,0,VALID,19.8805,VALID,27,VALID,0.839472,
2007-05-18, 03:07:00,VALID,916.163,VALID,0,VALID,98.9385,VALID,0,VALID,19.884,VALID,23,VALID,0.665305,
2007-05-18, 03:08:00,VALID,916.151,VALID,0,VALID,98.8545,VALID,0,VALID,19.854,VALID,27,VALID,0.512767,
2007-05-18, 03:09:00,VALID,916.145,VALID,0,VALID,98.7592,VALID,0.0169808,VALID,19.8613,VALID,27,VALID,0.663881,
2007-05-18, 03:10:00,VALID,916.148,VALID,0,VALID,98.6002,VALID,-0.0169808,VALID,19.8383,VALID,26,VALID,0.773801,
2007-05-18, 03:11:00,VALID,916.15,VALID,0,VALID,98.7808,VALID,0,VALID,19.8356,VALID,22,VALID,0.923828,
2007-05-18, 03:12:00,VALID,916.169,VALID,0,VALID,98.8749,VALID,0.0169808,VALID,19.858,VALID,21,VALID,0.603795,
2007-05-18, 03:13:00,VALID,916.159,VALID,0,VALID,98.9232,VALID,-0.0169808,VALID,19.8678,VALID,17,VALID,0.222202,
2007-05-18, 03:14:00,VALID,916.154,VALID,0,VALID,98.9067,VALID,-0.0339617,VALID,19.8867,VALID,5,VALID,0.320139,
2007-05-18, 03:15:00,VALID,916.152,VALID,0,VALID,98.749,VALID,-0.0339617,VALID,19.8803,VALID,359,VALID,0.212573,
2007-05-18, 03:16:00,VALID,916.144,VALID,0,VALID,98.5773,VALID,0,VALID,19.8678,VALID,359,VALID,0.0876116,
2007-05-18, 03:17:00,VALID,916.138,VALID,0,VALID,98.5786,VALID,0,VALID,19.8416,VALID,359,VALID,0.368118,
2007-05-18, 03:18:00,VALID,916.128,VALID,0,VALID,98.4527,VALID,-0.0339617,VALID,19.8089,VALID,359,VALID,0.314174,
2007-05-18, 03:19:00,VALID,916.125,VALID,0,VALID,98.351,VALID,0,VALID,19.7435,VALID,359,VALID,0.475419,
2007-05-18, 03:20:00,VALID,916.149,VALID,0,VALID,98.5633,VALID,0,VALID,19.7148,VALID,1,VALID,0.418605,
2007-05-18, 03:21:00,VALID,916.156,VALID,0,VALID,98.7554,VALID,0,VALID,19.6724,VALID,2,VALID,0.245994,
2007-05-18, 03:22:00,VALID,916.151,VALID,0,VALID,99.1394,VALID,-0.0169808,VALID,19.6816,VALID,2,VALID,0.297602,
2007-05-18, 03:23:00,VALID,916.154,VALID,0,VALID,99.2437,VALID,0,VALID,19.7016,VALID,2,VALID,0.263086,
2007-05-18, 03:24:00,VALID,916.138,VALID,0,VALID,99.1915,VALID,0,VALID,19.6689,VALID,1,VALID,0.321555,
2007-05-18, 03:25:00,VALID,916.129,VALID,0,VALID,99.4675,VALID,0.0169808,VALID,19.6853,VALID,359,VALID,0.342842,
2007-05-18, 03:26:00,VALID,916.118,VALID,0,VALID,99.3517,VALID,0.0339617,VALID,19.6818,VALID,359,VALID,0.338742,
2007-05-18, 03:27:00,VALID,916.107,VALID,0,VALID,99.2742,VALID,0,VALID,19.6728,VALID,2,VALID,0.496911,
2007-05-18, 03:28:00,VALID,916.103,VALID,0,VALID,99.0059,VALID,0,VALID,19.6239,VALID,18,VALID,0.639946,
2007-05-18, 03:29:00,VALID,916.091,VALID,0,VALID,99.2208,VALID,-0.0339617,VALID,19.6179,VALID,45,VALID,0.943216,
2007-05-18, 03:30:00,VALID,916.08,VALID,0,VALID,99.1318,VALID,-0.0169808,VALID,19.5853,VALID,36,VALID,1.13832,
2007-05-18, 03:31:00,VALID,916.071,VALID,0,VALID,99.5285,VALID,-0.0169808,VALID,19.6731,VALID,31,VALID,0.953835,
2007-05-18, 03:32:00,VALID,916.084,VALID,0,VALID,99.2347,VALID,-0.0169808,VALID,19.6956,VALID,34,VALID,0.737926,
2007-05-18, 03:33:00,VALID,916.087,VALID,0,VALID,99.0644,VALID,-0.0339617,VALID,19.6953,VALID,34,VALID,0.69077,
2007-05-18, 03:34:00,VALID,916.083,VALID,0,VALID,98.8812,VALID,-0.0169808,VALID,19.6589,VALID,34,VALID,0.529948,
2007-05-18, 03:35:00,VALID,916.069,VALID,0,VALID,98.9537,VALID,-0.0169808,VALID,19.6664,VALID,34,VALID,0.170201,
2007-05-18, 03:36:00,VALID,916.067,VALID,0,VALID,98.9537,VALID,0,VALID,19.6691,VALID,34,VALID,0.000726744,
2007-05-18, 03:37:00,VALID,916.061,VALID,0,VALID,98.9677,VALID,-0.0169808,VALID,19.6796,VALID,34,VALID,0,
2007-05-18, 03:38:00,VALID,916.065,VALID,0,VALID,98.8787,VALID,0,VALID,19.6694,VALID,34,VALID,0,
2007-05-18, 03:39:00,VALID,916.078,VALID,0,VALID,98.6969,VALID,-0.0169808,VALID,19.6402,VALID,34,VALID,0.121951,